• Join FlightAware (Why Join?)
  • Login
  • US Flag GB Flag 
12:07 EDT


 

Airport Tracker/Info


-or-


 

Live Flight TrackerFlight Track Log ✈ FLG3729 ✈ 29-Apr-2013 ✈ KALB - KDTW

Flight Track Log - Related Links

Times and Time Zones

All times are in EDT time to prevent confusion due to time zone crossing. See the FLG3729 flight status page for this flight to view local times or setup timezone preferences in your user account.

Time Position Orientation Groundspeed Altitude Reporting Facility
EDT Latitude Longitude Course Direction KTS MPH feet Rate Location/Type
05:53 42.7319 -73.8081 205° Southwest 141 162 1,200  Level Boston Center
05:54 42.6878 -73.8356 205° Southwest 211 243 3,200 1,980 Climbing Boston Center
05:55 42.7533 -73.9244 315° West 321 369 6,000 2,580 Climbing Boston Center
05:56 42.8150 -73.9967 319° Northwest 308 354 9,200 2,520 Climbing Boston Center
05:57 42.8786 -74.0664 321° Northwest 297 342 11,100 1,800 Climbing Boston Center
05:58 42.9103 -74.1750 292° West 307 353 12,800 1,800 Climbing Boston Center
05:59 42.9250 -74.3031 279° West 328 377 14,800 1,800 Climbing Boston Center
06:00 42.9417 -74.4283 280° West 335 386 16,400 1,500 Climbing Boston Center
06:01 42.9600 -74.5567 281° West 340 391 17,900 1,260 Climbing Boston Center
06:02 42.9764 -74.6933 279° West 357 411 19,000 1,020 Climbing Boston Center
06:03 42.9942 -74.8331 280° West 363 418 20,000 960 Climbing Boston Center
06:04 43.0100 -74.9758 279° West 375 432 21,000 900 Climbing Boston Center
06:05 43.0297 -75.1186 281° West 380 437 21,900 780 Climbing Boston Center
06:06 43.0489 -75.2644 280° West 386 444 22,600 660 Climbing Boston Center
06:07 43.0681 -75.4158 280° West 394 453 23,300 720 Climbing Boston Center
06:08 43.0869 -75.5675 280° West 399 459 24,100 720 Climbing Boston Center
06:09 43.1056 -75.7222 279° West 409 471 24,800 660 Climbing Boston Center
06:10 43.1219 -75.8767 278° West 409 471 25,500 660 Climbing Boston Center
06:11 43.1422 -76.0286 280° West 409 471 26,200 600 Climbing Boston Center
06:13 43.1475 -76.3428 271° West 401 461 27,400 540 Climbing Cleveland Center
06:14 43.1344 -76.5003 264° West 407 468 27,900 300 Climbing Cleveland Center
06:15 43.1208 -76.6550 263° West 412 474 28,000  Climbing Cleveland Center
06:16 43.1075 -76.8150 264° West 412 474 28,000  Level Cleveland Center
06:17 43.0939 -76.9781 264° West 424 488 28,000  Level Cleveland Center
06:18 43.0781 -77.1381 262° West 431 496 28,000  Level Cleveland Center
06:19 43.0619 -77.3039 262° West 436 502 28,000  Level Cleveland Center
06:20 43.0478 -77.4667 263° West 436 502 28,000  Level Cleveland Center
06:21 43.0311 -77.6294 262° West 436 502 28,000  Level Cleveland Center
06:22 43.0164 -77.7892 263° West 436 502 28,000  Level Cleveland Center
06:23 42.9992 -77.9517 262° West 436 502 28,000  Level Cleveland Center
06:24 42.9842 -78.1169 263° West 436 502 28,000  Level Cleveland Center
06:25 42.9667 -78.2822 262° West 436 502 28,000  Level Cleveland Center
06:26 42.9511 -78.4472 263° West 436 502 28,000  Level Cleveland Center
06:27 42.9333 -78.6125 262° West 442 509 28,000  Level Cleveland Center
06:28 42.9131 -78.7747 260° West 447 514 28,000  Level Cleveland Center
06:29 42.8883 -78.9369 258° West 447 514 28,000  Level Cleveland Center
06:30 42.8633 -79.1017 258° West 447 514 28,000  Level Cleveland Center
06:31 42.8383 -79.2694 259° West 447 514 28,000  Level Cleveland Center
06:32 42.8131 -79.4511 259° West 456 525 28,000  Level Cleveland Center
06:33 42.7875 -79.6186 258° West 451 519 28,000  Level Cleveland Center
06:34 42.7617 -79.7828 258° West 451 519 28,000  Level Cleveland Center
06:35 42.7503 -79.9500 265° West 451 519 28,000  Level Cleveland Center
06:36 42.7406 -80.0997 265° West 451 519 28,000  Level Cleveland Center
06:37 42.7328 -80.2722 267° West 445 512 28,000  Level Cleveland Center
06:38 42.7247 -80.4361 266° West 440 506 28,000  Level Cleveland Center
06:39 42.7208 -80.6086 268° West 450 518 28,000  Level Cleveland Center
06:40 42.7100 -80.7753 265° West 450 518 28,000 -120 Level Cleveland Center
06:41 42.6994 -80.9447 265° West 455 524 27,800 -660 Descending Cleveland Center
06:42 42.6797 -81.1256 262° West 455 524 26,700 -1,080 Descending Cleveland Center
06:43 42.6603 -81.2947 261° West 455 524 25,700 -1,020 Descending Cleveland Center
06:44 42.6403 -81.4581 261° West 450 518 24,700 -1,020 Descending Cleveland Center
06:45 42.6222 -81.6217 262° West 450 518 23,700 -900 Descending Cleveland Center
06:46 42.6064 -81.7594 261° West 450 518 22,900 -1,440 Descending Cleveland Center
06:47 42.5836 -81.9367 260° West 450 518 20,900 -2,280 Descending Cleveland Center
06:48 42.5628 -82.0914 260° West 436 502 18,400 -2,700 Descending Cleveland Center
06:49 42.5461 -82.2431 262° West 403 464 15,900 -2,400 Descending Cleveland Center
06:50 42.5272 -82.3864 260° West 408 470 13,600 -2,160 Descending Cleveland Center
06:51 42.5219 -82.4567 264° West 383 441 12,700 -1,500 Descending Cleveland Center
06:51 42.5083 -82.5294 256° West 403 464 12,100 -780 Descending Cleveland Center
06:52 42.4950 -82.5797 250° West 380 437 12,000 -120 Descending Cleveland Center
06:52 42.4644 -82.6575 242° Southwest 384 442 12,000 60 Level Cleveland Center
06:53 42.4422 -82.7328 248° West 381 438 12,100  Climbing Cleveland Center
06:53 42.4203 -82.7856 241° Southwest 384 442 12,000  Descending Cleveland Center
06:54 42.3958 -82.8606 246° West 382 440 12,100  Climbing Cleveland Center
06:54 42.3739 -82.9161 242° Southwest 384 442 12,000 -120 Descending Cleveland Center
06:55 42.3472 -82.9964 246° West 381 438 12,000  Level Cleveland Center
06:55 42.3294 -83.0492 246° West 384 442 12,000  Level Cleveland Center
06:56 42.3136 -83.1131 251° West 382 440 12,000  Level Cleveland Center
06:56 42.2953 -83.1825 250° West 379 436 12,000  Level Cleveland Center
06:57 42.2814 -83.2467 254° West 361 415 12,000  Level Cleveland Center
06:57 42.2633 -83.3075 248° West 368 423 12,000  Level Cleveland Center
06:58 42.2494 -83.3658 252° West 329 379 12,000 -240 Level Cleveland Center
06:58 42.2356 -83.4214 251° West 335 386 11,800 -1,020 Descending Cleveland Center
06:59 42.2153 -83.4794 245° Southwest 291 335 10,900 -2,100 Descending Cleveland Center
07:00 42.1536 -83.5242 208° Southwest 267 307 8,900 -2,400 Descending Cleveland Center
07:01 42.0811 -83.5853 212° Southwest 252 290 5,900 -1,980 Descending Cleveland Center
07:02 42.0300 -83.5492 152° Southeast 218 251 4,400 -1,080 Descending Cleveland Center
07:03 42.0478 -83.5053 61° Northeast 203 234 4,000 -600 Descending Cleveland Center